sat.trackr.live / text

‹ back to catalog

GSAT-29

NORAD 43698 · 2018-089A

PAYLOAD ACTIVE UNKNOWN

§ Identity

Operator
Country
IND
Launch date
2018-11-14
Launch site
SRILR
Launch vehicle
Mass (kg)
RCS (m²)

Purposes: comms

External: N2YO · Heavens-Above · Gunter

§ Orbital elements

Epoch: 2026-09-18T22:24:59.508576Z

Period
1,436.01 min
Inclination
0.0379°
Eccentricity
0.0001630
Mean motion
1.00277814 rev/d
Perigee alt
35,778.0 km
Apogee alt
35,791.8 km
Semi-major
42,163.0 km
B*
0.0000e+0
RAAN
266.6103°
Arg perigee
262.8079°
Mean anomaly
219.8317°
Rev number
2,872

§ Raw data

GSAT-291 43698U 18089A   26261.93402209  .00000079  00000+0  00000+0 0  99962 43698   0.0379 266.6103 0001630 262.8079 219.8317  1.00277814 28729

JSON: /api/v1/satellites/43698 · /tle

For live sub-satellite position, see the globe view (requires WebGL).

§ Visibility from observer

Set your observer location to see the next 7 days of passes ≥ 10°. The values pass through the URL so the page stays shareable.

No JS? Fill the form by hand. The geolocation button needs JavaScript.